Wind_Speed
8 8 10 9 4 14 22 12 16 20 19 14 20 37 39 39 43 38 37 35 33 26 25 23 25 21 20 14 12 13 14 15
6 5 6 7 7 4 12 26 19 22 24 22 21 30 35 38 42 43 41 38 34 29 28 27 26 23 18 17 17 16 17 14
5 4 5 6 6 6 4 18 23 21 24 24 23 30 29 39 39 42 43 40 35 35 36 29 28 27 22 19 20 16 16 16
6 4 2 4 5 4 3 4 16 26 23 27 18 29 31 34 39 42 40 40 41 36 26 31 34 29 25 22 21 18 18 18
9 7 3 1 1 4 5 5 4 10 20 27 24 26 28 30 30 34 41 38 39 36 35 39 37 32 28 24 23 23 22 21
10 7 7 7 5 3 1 5 7 7 10 12 14 14 19 26 27 31 37 35 33 36 35 37 37 34 31 29 28 27 27 26
11 12 13 13 10 7 5 4 5 7 10 12 12 12 14 17 18 20 24 29 32 33 35 35 34 35 31 32 31 33 33 32
16 14 11 13 14 12 10 8 8 9 9 10 11 12 14 15 17 18 20 22 25 25 30 30 31 32 34 34 34 36 37 40
17 17 15 10 10 12 13 12 12 11 11 11 12 14 16 17 17 18 20 21 22 25 29 30 32 35 37 39 41 43 39 43
17 18 17 17 14 10 9 14 15 15 14 14 14 15 16 17 19 22 23 25 26 29 31 33 36 38 41 45 48 50 47 51
20 19 16 17 16 15 14 13 13 17 20 20 20 20 22 23 25 26 27 29 31 33 35 37 39 44 46 47 50 47 36 22
17 16 16 15 17 15 14 15 16 15 18 20 22 23 25 29 31 29 34 34 37 37 37 40 47 46 48 43 43 32 19 27
16 16 17 17 17 18 19 20 22 21 22 23 23 23 30 31 30 34 18 27 26 41 40 49 50 41 36 46 20 24 27 33
23 25 23 20 21 19 19 22 24 24 25 28 27 27 27 27 26 33 22 25 17 12 22 17 22 27 22 23 29 32 32 32
24 22 22 21 19 16 14 10 12 18 19 21 24 26 25 25 24 26 33 27 24 25 23 25 25 21 22 26 29 33 33 36
21 23 24 22 20 13 16 14 11 13 12 11 11 18 22 23 26 28 26 29 25 25 23 25 25 28 28 29 31 33 34 36
26 24 23 25 25 22 18 18 17 15 18 20 19 22 22 25 24 26 26 25 25 24 23 24 26 27 29 32 35 36 37 39
29 26 24 27 28 25 24 19 20 21 21 23 26 28 27 25 26 26 27 27 26 25 27 28 29 29 32 35 37 38 40 41
27 29 32 32 31 30 24 22 22 24 25 27 28 31 30 25 25 27 27 28 29 31 31 32 31 33 35 36 37 37 38 39
Wind_Direction
346 10 12 26 123 191 209 212 206 206 189 199 205 183 199 199 182 192 199 203 206 201 212 226 221 231 242 247 236 227 229 231
315 356 8 34 50 110 197 197 201 204 212 219 220 210 209 213 200 192 200 203 208 215 223 218 224 228 235 240 235 227 229 241
277 307 351 25 52 70 145 201 205 211 213 221 217 207 218 218 201 203 206 203 207 219 228 219 231 235 238 246 243 235 233 241
243 243 299 17 31 71 82 135 195 204 217 214 210 218 226 220 213 208 223 224 219 219 219 223 239 241 243 248 242 237 240 245
244 229 217 214 12 39 92 102 92 180 196 207 205 209 210 219 218 221 225 233 228 222 223 223 234 245 245 246 244 243 245 249
237 214 206 220 208 193 124 122 130 135 149 160 177 191 201 209 211 212 220 228 231 223 225 222 230 241 247 249 248 255 253 255
219 209 207 208 220 217 197 166 163 156 159 162 159 166 178 192 196 207 211 214 216 215 214 217 226 237 250 253 255 256 259 259
229 226 228 222 218 218 219 208 190 186 184 184 180 176 187 188 189 192 200 205 209 213 219 225 233 241 249 252 254 256 258 261
227 233 231 227 230 231 232 230 227 219 210 202 201 203 208 210 213 212 212 214 218 219 223 227 234 242 249 254 258 259 261 260
236 229 239 232 230 233 240 240 239 242 236 234 233 229 231 233 232 234 232 231 231 233 238 242 246 252 254 255 256 257 256 260
219 213 219 227 230 235 237 242 247 244 246 247 245 246 245 244 244 244 246 248 246 246 246 250 252 251 250 254 255 261 270 239
228 215 215 211 214 220 234 238 247 251 252 252 251 253 258 260 258 260 255 255 256 252 251 252 251 255 263 265 258 266 230 242
217 224 226 222 219 228 238 242 247 251 257 258 259 253 258 265 262 257 277 254 279 247 253 252 259 269 259 261 251 244 245 252
236 236 234 231 235 236 243 247 251 254 258 257 264 269 273 280 281 269 249 273 271 244 250 245 266 275 255 219 225 241 253 259
237 247 238 242 235 246 246 251 234 243 250 256 266 272 275 272 268 264 255 258 259 259 257 266 252 249 235 245 250 252 258 263
234 258 252 235 247 258 253 259 251 228 233 260 297 279 271 265 260 261 255 246 253 259 253 249 252 245 249 252 252 258 263 268
246 249 251 249 254 263 268 256 261 263 258 267 281 294 289 263 260 261 255 246 244 244 253 253 251 252 254 259 262 265 269 271
258 256 249 254 254 268 272 267 266 272 274 276 282 289 297 273 261 262 257 252 250 252 252 257 258 258 260 262 264 266 266 268
255 260 252 256 253 265 264 260 264 260 268 269 279 284 292 272 263 258 258 256 256 255 255 258 262 261 263 263 261 263 267 270
Height
3076 3074 3073 3070 3068 3070 3074 3078 3081 3083 3087 3091 3096 3099 3104 3111 3116 3124 3129 3134 3140 3143 3146 3150 3153 3154 3156 3158 3158 3160 3160 3160
3074 3074 3075 3074 3071 3070 3072 3077 3080 3083 3086 3089 3091 3095 3100 3106 3111 3118 3123 3130 3136 3140 3142 3146 3149 3151 3154 3154 3154 3156 3156 3158
3073 3073 3073 3073 3073 3073 3072 3073 3077 3081 3084 3087 3089 3094 3097 3102 3108 3113 3118 3125 3130 3135 3137 3142 3146 3147 3151 3152 3153 3154 3154 3154
3071 3071 3072 3073 3073 3073 3073 3073 3075 3078 3082 3085 3088 3092 3095 3099 3103 3109 3114 3120 3124 3130 3132 3138 3143 3144 3147 3149 3149 3149 3149 3149
3070 3071 3072 3073 3073 3074 3076 3076 3075 3076 3078 3083 3086 3090 3092 3096 3101 3108 3112 3116 3120 3125 3129 3133 3138 3140 3143 3145 3144 3145 3144 3145
3068 3070 3071 3072 3074 3075 3076 3077 3078 3080 3080 3083 3086 3088 3090 3095 3099 3102 3107 3111 3115 3120 3124 3127 3131 3135 3138 3139 3140 3140 3140 3139
3067 3067 3068 3070 3071 3074 3076 3077 3079 3080 3083 3085 3087 3090 3092 3095 3097 3099 3104 3108 3112 3116 3120 3122 3126 3130 3132 3134 3133 3134 3134 3132
3064 3065 3066 3068 3071 3073 3076 3078 3079 3081 3083 3085 3087 3090 3093 3096 3097 3101 3103 3106 3109 3112 3115 3118 3122 3124 3125 3125 3126 3126 3126 3125
3061 3063 3064 3066 3068 3070 3073 3076 3078 3080 3083 3085 3088 3089 3091 3094 3096 3096 3099 3102 3105 3107 3109 3112 3114 3116 3116 3116 3117 3116 3116 3116
3057 3060 3062 3063 3064 3067 3070 3073 3076 3078 3080 3084 3086 3088 3089 3091 3093 3095 3096 3099 3100 3102 3104 3104 3105 3106 3107 3107 3105 3104 3103 3102
3053 3056 3058 3060 3062 3065 3067 3069 3071 3074 3076 3079 3081 3084 3085 3087 3088 3090 3092 3094 3094 3095 3097 3097 3097 3098 3096 3095 3095 3094 3091 3095
3050 3053 3055 3056 3058 3061 3064 3065 3066 3069 3071 3073 3076 3078 3081 3082 3084 3086 3084 3085 3086 3085 3086 3087 3088 3087 3084 3083 3076 3084 3085 3087
3046 3050 3052 3053 3054 3055 3058 3060 3062 3064 3066 3068 3070 3073 3074 3073 3073 3074 3075 3076 3073 3075 3077 3077 3079 3078 3073 3071 3074 3078 3077 3080
3042 3045 3047 3049 3051 3051 3052 3054 3056 3058 3059 3061 3063 3064 3064 3064 3065 3065 3067 3067 3068 3067 3068 3069 3070 3069 3068 3065 3066 3069 3071 3073
3036 3039 3042 3044 3045 3046 3048 3048 3049 3050 3051 3053 3055 3055 3056 3057 3057 3057 3058 3060 3061 3061 3062 3063 3064 3064 3063 3064 3065 3066 3065 3065
3032 3034 3035 3037 3039 3040 3042 3044 3043 3044 3046 3047 3048 3049 3049 3049 3049 3049 3050 3051 3052 3054 3053 3055 3056 3057 3059 3059 3058 3058 3057 3056
3027 3029 3030 3031 3032 3034 3036 3037 3038 3039 3039 3040 3040 3040 3041 3041 3041 3041 3042 3042 3043 3045 3046 3048 3048 3049 3049 3050 3050 3050 3048 3047
3019 3021 3022 3024 3025 3027 3028 3030 3031 3032 3032 3031 3032 3032 3031 3031 3033 3033 3034 3035 3037 3038 3039 3040 3041 3041 3042 3042 3041 3040 3040 3038
3011 3012 3014 3016 3018 3019 3021 3021 3023 3024 3025 3025 3025 3024 3023 3023 3023 3025 3026 3027 3028 3029 3031 3031 3031 3032 3032 3032 3031 3030 3029 3027